SCP
0 0 0 0 0 0 0 0 0 0 0 0 0 0 0 0 0 0 0 0 0 0 0 0 0 0 0 0 0 0 0 0 0 0 0 0 0 0 0 0 0 0 0
0 0 0 0 0 0 0 0 0 0 0 0 0 0 0 0 0 0 0 0 0 0 0 0 0 0 0 0 0 0 0 0 0 0 0 0 0 0 0 0 0 0 0
0 0 0 0 0 0 0 0 0 0 0 0 0 0 0 0 0 0 0 0 0 0 0 0 0 0 0 0 0 0 0 0 0 0 0 0 0 0 0 0 0 0 0
0 0 0 0 0 0 0 0 0 0 0 0 0 0 0 0 0 0 0 0 0 0 0 0 0 0 0 0 0 0 0 0 0 0 0 0 0 0 0 0 0 0 0
0 1 0 0 0 0 0 0 0 0 0 0 0 0 0 0 0 0 0 0 0 0 0 0 0 0 0 0 0 0 0 0 0 0 0 0 0 0 0 0 0 0 0
1 1 1 0 0 0 0 0 0 0 0 0 0 0 0 0 0 0 0 0 0 0 0 0 0 0 0 0 0 0 0 0 0 0 0 0 0 0 0 0 0 0 0
1 1 1 0 0 0 0 0 0 0 0 0 0 0 0 0 0 0 0 0 0 0 0 0 0 0 1 1 0 0 0 0 0 0 0 0 0 0 0 0 0 0 0
1 1 1 0 0 0 0 0 0 0 0 0 0 0 0 0 0 0 0 0 0 0 0 0 0 0 1 1 0 0 0 0 0 0 0 0 0 0 0 0 0 0 0
1 1 1 0 0 0 0 0 0 0 0 0 0 0 0 0 0 0 0 0 0 0 0 0 0 0 1 0 0 0 0 0 0 0 0 0 0 0 0 0 0 0 0
1 1 1 0 0 0 0 0 0 0 0 0 0 0 0 0 0 0 0 0 0 0 0 0 0 0 0 0 0 0 0 0 0 0 0 0 0 0 0 0 0 0 0
0 1 1 1 0 0 0 0 0 0 0 0 0 0 0 0 0 0 0 0 0 0 0 0 0 0 0 0 0 0 0 0 0 0 0 0 0 0 0 0 0 0 0
0 0 1 1 1 0 0 0 0 0 0 0 0 0 0 0 0 0 0 0 0 0 0 0 0 0 0 0 0 0 0 0 0 0 0 0 0 0 0 0 0 0 0
0 0 0 1 0 0 0 0 0 0 0 0 0 0 0 0 0 0 0 0 0 0 0 0 0 0 0 0 0 0 0 0 0 0 0 0 0 0 0 0 0 0 0
1 0 0 0 0 0 0 0 0 0 0 0 0 0 0 0 0 0 0 0 0 0 0 0 0 0 0 0 0 0 0 0 0 0 0 0 0 0 0 0 0 0 0
1 1 0 0 0 0 0 0 0 0 0 0 0 0 0 0 0 0 0 0 0 0 0 0 0 0 0 0 0 0 0 0 0 0 0 0 0 0 0 0 0 0 0
0 1 0 0 0 0 0 0 0 0 0 0 0 0 0 0 0 0 0 0 0 0 0 0 0 0 0 0 0 0 0 0 0 0 0 0 0 0 0 0 0 0 0
0 0 0 0 0 0 0 0 0 0 0 0 0 0 0 0 0 0 0 0 0 0 0 0 0 0 0 0 0 0 0 0 0 0 0 0 0 0 0 0 0 0 0
0 0 0 0 0 0 0 0 0 0 0 0 0 0 0 0 0 0 0 0 0 0 0 0 0 0 0 0 0 0 0 0 0 0 0 0 0 0 0 0 0 0 0
0 0 0 0 0 0 0 0 0 0 0 0 0 0 0 0 0 0 0 0 0 0 0 0 0 0 0 0 0 0 0 0 0 0 0 0 0 0 0 0 0 0 0
1 1 0 0 0 0 1 1 0 0 0 0 0 0 0 0 0 0 0 0 0 0 0 0 0 0 0 0 0 0 0 0 0 0 0 0 0 0 0 0 0 0 0
1 1 1 0 0 1 1 1 1 0 0 0 0 0 0 0 0 0 0 0 0 0 0 0 0 0 0 0 0 0 0 0 0 0 0 0 0 0 0 0 0 0 0
0 1 1 1 1 1 1 1 1 1 1 0 0 0 0 0 0 0 0 0 0 0 0 0 0 0 0 0 0 0 0 0 0 0 0 0 0 0 0 0 0 0 0
0 0 0 1 1 1 1 1 1 1 1 1 1 0 0 0 0 0 0 0 0 0 0 0 0 0 0 0 0 0 0 0 0 0 0 0 0 0 0 0 0 0 0
0 0 0 0 1 1 1 2 2 1 1 1 1 1 1 0 0 0 0 0 0 0 0 0 0 0 0 0 0 0 0 0 0 0 0 0 0 0 0 0 0 0 0
0 1 1 0 0 1 1 2 2 2 1 1 1 1 1 1 1 1 1 1 1 0 0 0 0 0 0 0 0 0 0 0 0 0 0 0 0 0 0 0 0 0 0
1 1 1 1 0 0 1 2 2 2 2 1 1 1 2 1 1 1 1 1 1 1 1 0 0 0 0 0 0 0 0 0 0 0 0 0 0 0 0 0 0 0 0
Wind_Speed
0 1 2 5 7 7 7 7 8 8 8 8 8 8 8 8 8 8 8 8 9 9 10 11 11 11 11 12 12 12 12 12 12 12 11 11 11 11 10 9 7 9 11
0 2 3 5 7 7 7 7 7 7 7 7 7 7 8 8 8 8 8 8 9 9 10 11 11 10 11 11 11 11 11 11 11 10 8 8 10 9 9 9 8 7 9
2 3 5 5 7 8 7 7 7 7 7 7 7 7 7 7 7 7 8 8 8 9 9 10 10 10 9 10 9 10 10 9 9 7 2 5 7 8 8 8 8 8 8
3 4 5 6 7 8 7 7 6 6 6 6 6 6 7 7 7 6 6 7 7 7 8 9 9 9 8 8 8 8 8 7 6 2 3 5 5 7 7 7 7 7 7
4 4 6 7 7 8 7 7 7 7 6 6 6 6 6 6 6 6 5 6 6 6 6 7 8 7 7 7 6 6 6 5 3 1 4 3 4 5 5 6 6 5 5
4 4 6 8 8 7 7 7 7 6 6 6 6 6 6 6 6 5 5 4 5 5 5 6 6 6 6 6 5 5 5 3 2 2 2 2 3 4 4 4 4 3 3
5 4 6 8 8 8 8 7 7 7 7 7 6 6 6 6 6 5 4 4 4 4 4 4 5 5 5 5 4 4 4 1 0 1 1 1 3 3 1 2 1 1 1
5 5 5 8 9 8 8 8 7 6 6 6 6 6 6 5 5 5 5 4 3 3 3 3 3 3 4 4 4 3 2 1 1 0 0 0 2 1 1 0 0 0 1
5 5 4 4 5 7 8 8 8 8 7 7 7 6 6 5 5 5 5 5 4 3 3 2 2 2 2 2 3 3 2 1 3 1 1 1 2 2 2 1 1 1 1
5 4 4 3 3 3 4 7 7 8 8 8 8 7 6 5 4 5 4 4 4 4 3 2 1 1 1 1 2 2 2 4 3 2 2 1 2 4 4 3 2 2 2
4 4 3 3 3 3 2 4 4 5 6 6 5 6 4 1 2 1 3 4 4 4 3 3 2 1 0 1 1 2 4 3 3 2 2 1 4 5 5 4 3 3 3
3 3 3 2 3 2 2 2 1 2 2 2 2 2 1 2 2 2 3 3 4 3 2 2 2 1 2 2 2 4 3 4 4 3 2 2 5 6 6 5 5 4 4
2 2 2 2 2 2 2 1 1 1 1 1 3 3 2 2 1 1 1 0 1 2 2 1 2 2 2 2 3 3 4 4 3 3 3 4 6 7 7 6 6 6 6
1 1 2 2 2 2 2 1 1 1 1 2 2 3 2 1 2 2 1 2 2 2 2 2 2 3 3 3 4 4 5 4 3 3 3 4 6 8 8 8 8 8 8
1 1 1 2 2 2 1 1 1 1 1 1 1 2 2 2 2 2 2 2 2 2 3 3 3 3 3 4 4 5 5 5 5 5 3 4 7 8 9 9 9 9 9
1 1 1 1 1 1 1 1 1 1 1 1 1 2 2 2 2 2 2 2 3 3 4 4 4 4 4 3 4 5 5 5 5 5 5 4 6 7 8 8 8 9 9
1 1 1 0 0 1 1 1 1 1 1 1 1 2 2 3 3 3 2 2 3 4 4 4 4 3 4 4 5 5 5 5 5 5 5 4 4 4 6 8 9 9 9
1 1 2 1 1 0 0 0 1 1 1 1 1 1 2 3 3 3 2 3 4 3 3 3 4 3 3 4 4 4 5 5 6 6 5 5 5 4 4 6 8 8 9
2 1 2 2 2 1 1 0 0 1 1 1 2 2 2 3 3 3 3 3 3 3 3 3 3 4 4 4 5 5 5 5 5 5 5 5 5 5 4 3 5 6 8
1 1 1 1 2 1 1 1 0 1 1 1 2 2 3 3 3 3 3 3 3 3 3 3 4 4 4 4 5 5 5 6 5 5 5 4 4 5 5 5 4 4 6
1 2 2 2 1 1 1 1 1 1 1 1 2 3 3 3 3 3 3 3 3 3 4 4 4 4 4 3 4 5 5 6 5 4 4 4 4 4 4 4 4 4 3
0 1 1 2 1 1 1 1 1 1 1 2 2 3 3 4 4 3 3 3 3 3 4 4 4 3 3 2 3 4 4 4 3 4 4 3 3 3 4 4 4 4 4
1 1 1 1 2 1 1 1 1 1 1 2 3 3 4 4 3 3 4 4 4 3 4 4 4 4 4 3 2 3 4 4 4 3 4 4 4 4 4 4 5 4 4
2 2 2 1 1 1 1 1 0 1 2 3 3 3 4 4 4 4 4 4 4 4 4 4 4 4 5 4 3 3 5 5 5 5 4 4 5 5 6 5 5 5 5
2 2 2 1 1 1 1 1 2 2 3 3 3 4 4 3 4 4 4 4 4 4 5 5 4 4 4 5 4 4 5 5 6 7 8 6 5 5 6 6 5 5 5
2 1 2 2 2 2 1 1 2 3 3 4 4 4 4 3 3 4 5 4 4 4 5 6 5 5 5 6 5 4 4 4 5 6 8 9 8 6 6 5 5 5 4
Wind_Direction
60 122 107 111 110 108 109 110 111 109 107 105 102 106 107 105 101 94 97 105 106 104 99 94 92 90 86 84 82 82 79 76 72 73 75 76 78 80 77 69 70 78 74
183 143 107 97 101 99 99 105 111 110 109 106 103 101 105 104 105 99 93 99 105 105 101 98 95 91 88 87 86 85 83 79 74 70 74 87 81 80 79 69 59 71 75
124 128 124 89 94 93 91 95 103 107 109 107 107 103 101 99 101 102 97 95 103 108 106 104 100 96 93 91 89 88 86 82 77 70 82 92 89 80 80 74 69 70 72
106 112 113 88 90 90 88 87 90 96 101 103 107 106 101 96 96 101 101 97 100 109 110 108 106 103 99 94 91 89 86 83 76 65 86 78 83 79 76 76 72 67 66
88 79 79 74 87 90 85 83 84 84 87 92 95 97 97 95 93 89 97 103 102 108 112 113 111 108 105 99 95 93 91 90 89 128 84 81 82 76 70 72 69 65 57
82 75 76 60 73 80 83 80 78 79 82 85 86 87 87 88 88 90 87 98 101 107 115 115 118 117 112 107 102 102 98 98 198 103 87 76 79 79 77 76 71 65 53
76 68 79 55 60 65 68 72 75 76 76 78 77 79 82 80 80 81 83 88 96 97 114 116 122 124 120 116 113 112 104 106 275 87 72 72 65 50 70 80 77 76 53
77 69 76 54 53 53 57 58 58 60 67 70 70 72 74 73 73 75 71 69 72 86 97 108 117 126 129 129 127 123 111 254 236 141 246 324 47 347 345 46 71 98 82
78 73 71 72 63 50 49 48 48 50 52 56 59 61 60 60 60 58 54 54 52 59 67 89 107 106 135 139 139 137 136 253 263 260 272 289 3 289 288 269 260 221 220
76 70 66 65 67 70 67 48 43 47 47 49 50 45 50 56 57 51 45 42 39 40 42 47 79 99 93 134 143 153 179 228 255 259 262 308 309 273 269 266 257 252 256
64 59 50 51 46 48 57 52 48 51 46 49 54 44 48 71 79 71 38 30 24 24 26 28 20 22 13 166 176 195 222 245 261 267 267 311 276 265 261 262 265 259 255
60 53 40 38 36 36 39 60 50 55 56 48 48 49 24 16 18 10 36 20 9 4 3 5 3 327 265 248 211 222 240 251 256 255 259 261 264 262 261 260 260 253 247
91 64 33 29 33 36 33 47 34 32 31 30 33 23 7 11 11 349 339 355 305 304 292 302 275 275 285 293 278 263 265 262 258 258 250 236 256 259 261 259 257 255 251
85 63 32 26 26 26 24 37 43 34 28 26 25 17 8 2 346 333 321 312 302 293 294 289 293 290 283 284 283 276 270 266 265 266 263 237 253 257 259 260 260 256 254
58 48 25 22 22 14 18 18 40 32 28 24 18 11 4 352 334 328 325 317 307 300 283 278 275 281 279 281 284 284 278 273 270 267 263 238 244 254 257 259 260 260 257
329 319 357 20 20 19 16 17 26 20 6 360 4 1 352 337 330 320 324 322 320 313 307 291 287 286 284 283 284 285 285 281 271 270 272 258 238 250 258 261 265 267 263
309 309 310 285 12 32 1 11 16 21 9 358 347 346 350 337 326 320 318 316 316 313 313 306 295 292 296 292 285 283 280 276 278 273 270 271 259 239 247 259 264 267 265
2 349 343 351 335 323 324 22 25 17 1 341 333 336 336 328 325 315 315 315 318 314 313 318 316 300 293 290 286 284 279 273 270 270 267 262 263 263 249 252 260 263 265
22 11 3 355 340 321 296 323 47 22 351 333 329 332 326 319 317 308 307 316 316 313 318 324 317 311 303 301 293 287 282 277 271 268 266 266 262 261 263 258 256 261 266
24 26 20 10 343 317 299 282 332 2 330 321 321 323 318 311 310 301 303 312 315 313 317 319 312 309 303 307 299 289 281 273 267 262 266 270 268 262 260 263 254 246 252
28 12 8 3 351 335 309 289 284 313 316 319 322 321 315 311 305 299 304 305 309 301 304 309 307 306 309 318 307 300 279 262 259 265 264 265 274 275 272 272 269 270 256
332 334 335 344 346 333 313 288 283 296 294 300 313 315 316 313 309 297 295 297 296 291 298 305 311 307 304 308 303 304 297 276 251 264 266 270 275 277 285 283 275 272 270
313 311 303 322 338 333 304 300 343 329 328 333 328 324 322 318 311 304 302 296 292 287 290 294 290 289 291 286 278 279 289 290 309 259 263 272 279 278 276 276 279 279 277
312 322 302 301 327 341 322 296 278 310 304 303 306 310 318 322 320 314 310 305 301 295 290 285 284 282 281 281 276 264 269 286 284 289 270 271 281 278 277 279 274 275 276
314 320 315 308 316 335 337 309 274 283 292 303 311 312 314 314 313 315 314 309 303 297 294 292 287 279 273 274 273 272 264 263 265 275 281 283 278 274 276 274 274 272 272
329 335 325 329 339 336 306 291 291 295 305 317 323 321 317 315 312 315 310 304 302 299 297 293 286 278 275 275 274 270 267 264 262 265 275 281 280 279 275 272 270 269 273